Weather History for Grand Forks, ND

Change the Weather History Date:

Friday, March 2, 2012

  Actual Average Record
Temperature  
Mean Temperature 21 °F 18 °F  
Max Temperature 28 °F 27 °F 43 °F (1993)
Min Temperature 14 °F 9 °F -26 °F (1972)
Degree Days  
Heating Degree Days 44 47  
Month to date heating degree days 83 94  
Since 1 July heating degree days 5920 7244  
Cooling Degree Days 0 0  
Month to date cooling degree days 0 0  
Year to date cooling degree days 0 0  
Moisture  
Dew Point 18 °F    
Average Humidity 85    
Maximum Humidity 92    
Minimum Humidity 78    
Precipitation  
Precipitation 0.05 in 0.03 in 0.43 in (1979)
Month to date precipitation 0.08 0.06  
Year to date precipitation 0.97 1.13  
Snow  
Snow 1.10 in 0.30 in - ()
Month to date snowfall 1.4 0.6  
Since 1 July snowfall 18.3 37.8  
Snow Depth 5.00 in    
Sea Level Pressure  
Sea Level Pressure 29.62 in    
Wind  
Wind Speed 15 mph (NW)    
Max Wind Speed 31 mph    
Max Gust Speed 38 mph    
Visibility 3 miles    
Events Snow    
T = Trace of Precipitation, MM = Missing Value Source: NWS Daily Summary

Daily Weather History Graph

Daily Weather History Graph

Search for Another Location

Airport:

Trip Planner

Search our weather history database for the weather conditions in past years. The results will help you decide how hot, cold, wet, or windy it might be!

Date:

Astronomy

Mar. 02, 2012 Rise Set
Actual Time 7:06 AM CST 6:15 PM CST
Civil Twilight 6:35 AM CST 6:46 PM CST
Nautical Twilight 5:59 AM CST 7:22 PM CST
Astronomical Twilight 5:23 AM CST 7:58 PM CST
Moon 12:08 PM CST (3/2) 3:18 AM CST (3/2)
Length of Visible Light 12h 11m
Length of Day
11h 08m
Waxing Gibbous, 66% of the Moon is Illuminated
Mar 2
Waxing Gibbous
Mar 8
Full
Mar 14
Last Quarter
Mar 22
New
Mar 30
First Quarter

Hourly Weather History & Observations

Time (CST) Temp. Windchill Dew Point Humidity Pressure Visibility Wind Dir Wind Speed Gust Speed Precip Events Conditions
12:29 AM 24.8 °F 14.0 °F 21.2 °F 86% 29.59 in 9.0 mi South 11.5 mph - N/A   Overcast
12:53 AM 21.9 °F 11.0 °F 19.9 °F 92% 29.63 in 9.0 mi South 10.4 mph - N/A   Overcast
1:53 AM 21.9 °F 13.4 °F 19.9 °F 92% 29.62 in 8.0 mi South 6.9 mph - N/A   Overcast
2:53 AM 24.1 °F 19.7 °F 21.0 °F 88% 29.61 in 9.0 mi SSW 3.5 mph - N/A   Overcast
3:53 AM 25.0 °F - 21.0 °F 85% 29.59 in 8.0 mi Calm Calm - N/A   Overcast
4:53 AM 27.0 °F 18.0 °F 21.0 °F 78% 29.59 in 10.0 mi SW 9.2 mph - N/A   Overcast
5:18 AM 26.6 °F 16.2 °F 19.4 °F 74% 29.55 in 10.0 mi SW 11.5 mph - N/A   Overcast
5:53 AM 24.1 °F 13.7 °F 19.0 °F 81% 29.58 in 10.0 mi SW 10.4 mph - N/A   Overcast
6:15 AM 24.8 °F 14.0 °F 19.4 °F 80% 29.54 in 10.0 mi SW 11.5 mph - N/A   Overcast
6:53 AM 24.1 °F 16.0 °F 19.0 °F 81% 29.58 in 9.0 mi SSW 6.9 mph - N/A   Overcast
7:53 AM 23.0 °F 15.8 °F 19.9 °F 88% 29.57 in 3.0 mi SSW 5.8 mph - 0.00 in Snow Light Snow
8:00 AM 23.0 °F 15.8 °F 19.4 °F 86% 29.53 in 3.0 mi SSW 5.8 mph - 0.00 in Snow Light Snow
8:08 AM 23.0 °F 15.8 °F 19.4 °F 86% 29.53 in 2.5 mi SSW 5.8 mph - 0.00 in Snow Light Snow
8:44 AM 24.8 °F 17.9 °F 21.2 °F 86% 29.53 in 1.8 mi SSW 5.8 mph - 0.00 in Snow Light Snow
8:53 AM 24.1 °F 17.0 °F 21.0 °F 88% 29.57 in 1.8 mi SW 5.8 mph - 0.00 in Snow Light Snow
9:53 AM 25.0 °F 20.7 °F 21.9 °F 88% 29.57 in 1.8 mi WSW 3.5 mph - 0.01 in Snow Light Snow
10:25 AM 26.6 °F 20.0 °F 23.0 °F 86% 29.54 in 2.0 mi WNW 5.8 mph - 0.00 in Snow Light Snow
10:53 AM 28.0 °F 21.7 °F 23.0 °F 81% 29.57 in 2.0 mi NW 5.8 mph - 0.00 in Snow Light Snow
11:35 AM 28.4 °F 19.1 °F 23.0 °F 80% 29.54 in 1.5 mi NNW 10.4 mph - 0.01 in Snow Light Snow
11:46 AM 28.4 °F 19.7 °F 24.8 °F 86% 29.55 in 1.0 mi NNW 9.2 mph - 0.01 in Snow Light Snow
11:53 AM 27.0 °F 18.7 °F 24.1 °F 89% 29.59 in 1.0 mi NNW 8.1 mph - 0.01 in Snow Light Snow
11:59 AM 26.6 °F 18.2 °F 24.8 °F 93% 29.55 in 0.8 mi North 8.1 mph - 0.00 in Snow Light Snow
12:16 PM 28.4 °F 19.1 °F 24.8 °F 86% 29.55 in 1.0 mi North 10.4 mph - 0.01 in Snow Light Snow
12:53 PM 27.0 °F 16.1 °F 23.0 °F 85% 29.60 in 2.0 mi NNW 12.7 mph - 0.01 in Snow Light Snow
1:22 PM 26.6 °F 15.7 °F 23.0 °F 86% 29.55 in 2.0 mi North 12.7 mph - 0.00 in Snow Light Snow
1:39 PM 26.6 °F 14.7 °F 23.0 °F 86% 29.56 in 1.0 mi NNW 15.0 mph - 0.00 in Snow Light Snow
1:53 PM 27.0 °F 16.7 °F 24.1 °F 89% 29.60 in 0.8 mi NNW 11.5 mph - 0.01 in Snow Light Snow
2:29 PM 26.6 °F 14.3 °F 24.8 °F 93% 29.56 in 0.8 mi NW 16.1 mph 21.9 mph 0.01 in Snow Light Snow
2:53 PM 26.1 °F 10.4 °F 21.9 °F 84% 29.61 in 0.8 mi NNW 26.5 mph 33.4 mph 0.01 in Snow Light Snow
3:01 PM 24.8 °F 10.0 °F 21.2 °F 86% 29.57 in 1.0 mi NNW 21.9 mph 32.2 mph 0.00 in Snow Light Snow
3:41 PM 23.0 °F 6.6 °F 19.4 °F 86% 29.60 in 0.8 mi NNW 25.3 mph 35.7 mph 0.00 in Snow Light Snow
3:53 PM 23.0 °F 6.3 °F 19.0 °F 85% 29.65 in 0.8 mi NNW 26.5 mph 38.0 mph 0.00 in Snow Light Snow
4:04 PM 21.2 °F 3.5 °F 17.6 °F 86% 29.61 in 1.0 mi NNW 27.6 mph 32.2 mph 0.00 in Snow Light Snow
4:39 PM 19.4 °F 1.8 °F 17.6 °F 93% 29.63 in 1.0 mi NNW 25.3 mph 34.5 mph 0.00 in Snow Light Snow
4:53 PM 19.9 °F 2.8 °F 16.0 °F 85% 29.68 in 1.0 mi NNW 24.2 mph 33.4 mph 0.00 in Snow Light Snow
5:19 PM 19.4 °F 2.5 °F 15.8 °F 86% 29.65 in 1.0 mi NNW 23.0 mph 33.4 mph 0.00 in Snow Light Snow
5:53 PM 18.0 °F -0.5 °F 14.0 °F 84% 29.71 in 1.2 mi NNW 26.5 mph 34.5 mph 0.00 in Snow Light Snow
6:12 PM 17.6 °F -0.6 °F 14.0 °F 86% 29.67 in 2.0 mi NNW 25.3 mph 32.2 mph 0.00 in Snow Light Snow
6:53 PM 17.1 °F -2.4 °F 12.9 °F 84% 29.74 in 2.5 mi NNW 28.8 mph 34.5 mph 0.00 in Snow Light Snow
7:07 PM 15.8 °F -3.1 °F 12.2 °F 86% 29.69 in 3.0 mi NNW 25.3 mph 31.1 mph 0.00 in Snow Light Snow
7:24 PM 15.8 °F -2.7 °F 12.2 °F 86% 29.69 in 1.5 mi NNW 24.2 mph 36.8 mph 0.00 in Snow Light Snow
7:50 PM 15.8 °F -2.7 °F 12.2 °F 86% 29.70 in 1.5 mi NNW 24.2 mph 34.5 mph 0.00 in Snow Light Snow
7:53 PM 16.0 °F -3.5 °F 12.0 °F 84% 29.75 in 1.5 mi NNW 27.6 mph 34.5 mph 0.00 in Snow Light Snow
8:53 PM 16.0 °F -2.5 °F 10.9 °F 81% 29.76 in 1.8 mi NNW 24.2 mph 34.5 mph 0.00 in Snow Light Snow
9:16 PM 15.8 °F -3.4 °F 10.4 °F 79% 29.72 in 2.5 mi NNW 26.5 mph 33.4 mph 0.00 in Snow Light Snow
9:27 PM 15.8 °F -2.7 °F 10.4 °F 79% 29.72 in 3.0 mi NNW 24.2 mph 34.5 mph 0.00 in Snow Light Snow
9:53 PM 15.1 °F -3.3 °F 10.9 °F 84% 29.78 in 3.0 mi NNW 23.0 mph 31.1 mph 0.00 in Snow Light Snow
10:53 PM 15.1 °F -3.7 °F 10.9 °F 84% 29.79 in 5.0 mi NNW 24.2 mph 33.4 mph 0.00 in Snow Blowing Snow
11:40 PM 14.0 °F -4.7 °F 10.4 °F 86% 29.75 in 2.5 mi NNW 23.0 mph - 0.00 in Snow Light Snow
11:53 PM 14.0 °F -4.3 °F 10.0 °F 84% 29.81 in 5.0 mi NNW 21.9 mph 28.8 mph 0.00 in Snow Light Snow